Weather History for West Palm Beach, FL

Change the Weather History Date:

Sunday, August 18, 2013

  Actual Average Record
Temperature  
Mean Temperature 88 °F 83 °F  
Max Temperature 92 °F 90 °F 96 °F (1949)
Min Temperature 84 °F 76 °F 69 °F (1921)
Degree Days  
Heating Degree Days 0 0  
Month to date heating degree days 0 0  
Since 1 June heating degree days 0 0  
Since 1 July heating degree days 0 0  
Cooling Degree Days 23 18  
Month to date cooling degree days 372 324  
Year to date cooling degree days 2622 2472  
Since 1 June cooling degree days 1437 1363  
Growing Degree Days 38 (Base 50)    
Moisture  
Dew Point 73 °F    
Average Humidity 63    
Maximum Humidity 70    
Minimum Humidity 56    
Precipitation  
Precipitation 0.10 in 0.25 in 3.73 in (1981)
Month to date precipitation 2.89 4.42  
Year to date precipitation 46.41 37.19  
Snow  
Snow 0.00 in - - ()
Month to date snowfall 0.0  
Since 1 June snowfall 0.0  
Since 1 July snowfall 0.0  
Snow Depth 0.00 in    
Sea Level Pressure  
Sea Level Pressure 30.05 in    
Wind  
Wind Speed 12 mph (ESE)    
Max Wind Speed 23 mph    
Max Gust Speed 31 mph    
Visibility 10 miles    
Events Rain    
T = Trace of Precipitation, MM = Missing Value Source: NWS Daily Summary

Daily Weather History Graph

Daily Weather History Graph

Search for Another Location

Airport:

Trip Planner

Search our weather history database for the weather conditions in past years. The results will help you decide how hot, cold, wet, or windy it might be!

Date:

Astronomy

Aug. 18, 2013 Rise Set
Actual Time 6:53 AM EDT 7:54 PM EDT
Civil Twilight 6:29 AM EDT 8:18 PM EDT
Nautical Twilight 6:01 AM EDT 8:46 PM EDT
Astronomical Twilight 5:31 AM EDT 9:15 PM EDT
Moon 5:53 PM EDT (8/18) 4:09 AM EDT (8/18)
Length of Visible Light 13h 48m
Length of Day
13h 00m
Waxing Gibbous, 92% of the Moon is Illuminated
Aug 18
Waxing Gibbous
Aug 20
Full
Aug 28
Last Quarter
Sep 5
New
Sep 12
First Quarter

Hourly Weather History & Observations

Time (EDT) Temp. Heat Index Dew Point Humidity Pressure Visibility Wind Dir Wind Speed Gust Speed Precip Events Conditions
12:53 AM 84.9 °F 92.1 °F 73.9 °F 69% 30.07 in 10.0 mi ESE 6.9 mph - N/A   Scattered Clouds
1:53 AM 84.9 °F 90.7 °F 72.0 °F 65% 30.06 in 10.0 mi ESE 11.5 mph - N/A   Scattered Clouds
2:53 AM 84.0 °F 90.2 °F 73.0 °F 69% 30.04 in 10.0 mi ESE 11.5 mph - N/A   Scattered Clouds
3:53 AM 84.0 °F 90.2 °F 73.0 °F 69% 30.03 in 10.0 mi East 9.2 mph - N/A   Scattered Clouds
4:53 AM 84.0 °F 91.2 °F 73.9 °F 72% 30.02 in 10.0 mi East 8.1 mph - N/A   Scattered Clouds
5:53 AM 84.0 °F 90.2 °F 73.0 °F 69% 30.02 in 10.0 mi East 11.5 mph - N/A   Scattered Clouds
6:53 AM 84.0 °F 90.2 °F 73.0 °F 69% 30.04 in 10.0 mi East 11.5 mph - N/A   Mostly Cloudy
7:53 AM 84.9 °F 90.7 °F 72.0 °F 65% 30.05 in 10.0 mi ESE 12.7 mph - N/A   Scattered Clouds
8:53 AM 87.1 °F 93.6 °F 72.0 °F 61% 30.06 in 10.0 mi ESE 13.8 mph - N/A   Scattered Clouds
9:53 AM 89.1 °F 97.0 °F 73.0 °F 59% 30.07 in 10.0 mi ESE 15.0 mph - N/A   Scattered Clouds
10:53 AM 90.0 °F 97.9 °F 73.0 °F 57% 30.09 in 10.0 mi ESE 15.0 mph - N/A   Scattered Clouds
11:53 AM 91.0 °F 100.4 °F 73.9 °F 57% 30.08 in 10.0 mi ESE 13.8 mph - N/A   Scattered Clouds
12:23 PM 91.4 °F 100.1 °F 73.4 °F 55% 30.08 in 10.0 mi ESE 15.0 mph 23.0 mph N/A   Mostly Cloudy
12:53 PM 84.9 °F 91.4 °F 73.0 °F 67% 30.09 in 10.0 mi SSE 8.1 mph - N/A   Mostly Cloudy
1:04 PM 89.6 °F 98.2 °F 73.4 °F 59% 30.08 in 10.0 mi ESE 10.4 mph - N/A   Mostly Cloudy
1:53 PM 91.9 °F 100.7 °F 73.0 °F 54% 30.06 in 10.0 mi East 18.4 mph - N/A   Mostly Cloudy
2:53 PM 91.0 °F 99.3 °F 73.0 °F 55% 30.05 in 10.0 mi East 17.3 mph 24.2 mph N/A   Scattered Clouds
3:53 PM 89.1 °F 98.0 °F 73.9 °F 61% 30.02 in 10.0 mi ESE 18.4 mph - 0.00 in   Scattered Clouds
4:53 PM 90.0 °F 100.2 °F 75.0 °F 61% 30.02 in 10.0 mi SE 16.1 mph 21.9 mph 0.00 in Rain Light Rain
5:53 PM 87.1 °F 96.3 °F 75.0 °F 67% 30.01 in 10.0 mi ESE 19.6 mph - 0.10 in   Mostly Cloudy
6:53 PM 86.0 °F 93.8 °F 73.9 °F 67% 30.01 in 10.0 mi ESE 12.7 mph - N/A   Scattered Clouds
7:53 PM 86.0 °F 93.0 °F 73.0 °F 65% 30.03 in 10.0 mi ESE 11.5 mph - N/A   Scattered Clouds
8:53 PM 84.9 °F 91.4 °F 73.0 °F 67% 30.05 in 10.0 mi ESE 8.1 mph - N/A   Scattered Clouds
9:53 PM 84.9 °F 92.1 °F 73.9 °F 69% 30.07 in 10.0 mi ESE 9.2 mph - N/A   Partly Cloudy
10:53 PM 84.9 °F 92.1 °F 73.9 °F 69% 30.08 in 10.0 mi ESE 6.9 mph - N/A   Scattered Clouds
11:53 PM 84.9 °F 92.1 °F 73.9 °F 69% 30.08 in 10.0 mi ESE 9.2 mph - N/A   Partly Cloudy